Tracking 31027 objects as of 19-Jul-2025
HD Live streaming from Space Station
objects crossing your sky now

SL-14 R/B

Track SL-14 R/B now!
10-day predictions


NORAD ID: 16327
Int'l Code: 1985-113B
Perigee: 607.0 km
Apogee: 631.2 km
Inclination: 82.5 °
Period: 96.9 minutes
Semi major axis: 6990 km
RCS: 4.5252 m2 (large)
Launch date: December 12, 1985
Source: Commonwealth of Independent States (former USSR) (CIS)
Launch site: PLESETSK MISSILE AND SPACE COMPLEX (PKMTR)

Note: This is a ROCKET BODY
Your satellite tracking list
ATLAS 2A CENTAUR R/B
Track 1 satellite(s)




NASA's NSSDC Master Catalog

Two Line Element Set (TLE):
1 16327U 85113B   25199.52021178  .00000353  00000-0  38025-4 0  9992
2 16327  82.5316 209.3904 0017314 326.3584 147.1517 14.85503644118691
Source of the keplerian elements: AFSPC